FW9229 Weather Reports


time (UTC)temp
F
wind
direction
speed
knots
gust
knots
rain 1hr
in
rain 24hr
in
rain mn
in
humidity
%
barometer
mb
20260506092017 60 351 1.7 6.1 0.00 0.00 0.00 72 1010.1
20260506091530 60 4 1.7 6.1 0.00 0.00 0.00 73 1010.0
20260506091013 60 0 0.0 4.3 0.00 0.00 0.00 73 1010.0
20260506090512 60 352 0.9 7.0 0.00 0.00 0.00 73 1010.0
20260506090031 60 328 0.9 7.0 0.00 0.00 0.00 72 1009.9
20260506085512 61 0 0.0 4.3 0.00 0.00 0.00 73 1009.9
20260506085012 61 2 1.7 4.3 0.00 0.00 0.00 73 1009.8
20260506084606 61 0 0.0 4.3 0.00 0.00 0.00 73 1009.6
20260506084017 61 41 0.0 4.3 0.00 0.00 0.00 73 1009.6
20260506083514 61 0 0.0 5.2 0.00 0.00 0.00 73 1009.7
20260506083029 61 345 1.7 7.0 0.00 0.00 0.00 73 1009.7
20260506082511 61 0 1.7 7.0 0.00 0.00 0.00 73 1009.6
20260506082011 61 12 0.9 5.2 0.00 0.00 0.00 73 1009.5
20260506081540 61 0 0.0 1.7 0.00 0.00 0.00 74 1009.4
20260506081014 61 0 0.0 3.5 0.00 0.00 0.00 74 1009.2
20260506080514 61 0 0.0 3.5 0.00 0.00 0.00 73 1009.3
20260506073514 62 358 0.0 5.2 0.00 0.00 0.00 73 1009.2
20260506073030 62 0 0.0 5.2 0.00 0.00 0.00 73 1009.5
20260506072513 62 44 0.9 3.5 0.00 0.00 0.00 73 1009.5
20260506072013 62 338 0.9 4.3 0.00 0.00 0.00 73 1009.6
20260506071534 62 25 0.9 4.3 0.00 0.00 0.00 73 1009.5
20260506071012 62 0 0.0 3.5 0.00 0.00 0.00 72 1009.4
20260506070512 62 20 0.9 5.2 0.00 0.00 0.00 73 1009.6
20260506062512 63 312 0.9 3.5 0.00 0.00 0.00 74 1009.2
20260506062016 63 0 0.0 5.2 0.00 0.00 0.00 74 1009.2
20260506061530 63 0 1.7 5.2 0.00 0.00 0.00 74 1009.2
20260506061014 63 56 1.7 5.2 0.00 0.00 0.00 74 1009.2
20260506060515 63 0 0.9 7.0 0.00 0.00 0.00 74 1009.3
20260506051014 65 9 2.6 8.7 0.00 0.00 0.00 73 1009.2
20260506050513 65 0 2.6 10.4 0.00 0.00 0.00 73 1009.3
20260506045014 66 340 0.9 4.3 0.00 0.00 0.00 74 1009.4
20260506044536 66 48 0.9 7.0 0.00 0.00 0.00 73 1009.2
20260506044012 66 31 1.7 8.7 0.00 0.00 0.00 73 1009.2
20260506043513 66 32 2.6 9.6 0.00 0.00 0.00 73 1009.2
20260506043030 67 30 2.6 9.6 0.00 0.00 0.00 73 1009.2
20260506042511 67 25 2.6 8.7 0.00 0.00 0.00 73 1009.1
20260506042015 68 352 1.7 8.7 0.00 0.00 0.00 73 1009.1
20260506041530 68 327 1.7 6.1 0.00 0.00 0.00 73 1008.9
20260506041013 68 12 1.7 6.1 0.00 0.00 0.00 73 1008.7
20260506040513 68 48 0.9 4.3 0.00 0.00 0.00 73 1008.6
20260506040036 69 1 0.9 5.2 0.00 0.00 0.00 73 1008.6
20260506035511 69 56 1.7 7.0 0.00 0.00 0.00 72 1008.5
20260506035013 69 10 1.7 7.0 0.00 0.00 0.00 73 1008.6
20260506034533 69 12 0.9 7.8 0.00 0.00 0.00 72 1008.5
20260506034013 70 7 2.6 10.4 0.00 0.00 0.00 72 1008.3
20260506033511 70 4 3.5 10.4 0.00 0.00 0.00 71 1008.4
20260506033030 71 25 1.7 7.0 0.00 0.00 0.00 72 1008.0
20260506032514 71 0 0.0 5.2 0.00 0.00 0.00 72 1008.2
20260506032015 71 351 0.9 7.0 0.00 0.00 0.00 72 1008.2
20260506031539 71 2 0.9 7.0 0.00 0.00 0.00 72 1008.0
20260506031012 71 12 0.9 9.6 0.00 0.00 0.00 72 1007.7
20260506030514 72 355 2.6 9.6 0.00 0.00 0.00 71 1007.7
20260506030031 72 64 1.7 7.8 0.00 0.00 0.00 71 1007.9
20260506025511 72 359 1.7 7.8 0.00 0.00 0.00 71 1007.7
20260506025017 73 20 1.7 7.0 0.00 0.00 0.00 71 1007.5
20260506024533 73 47 1.7 7.0 0.00 0.00 0.00 71 1007.4
20260506024011 73 0 1.7 7.0 0.00 0.00 0.00 71 1007.3
20260506023513 74 56 2.6 7.8 0.00 0.00 0.00 70 1006.9
20260506023050 74 341 1.7 7.8 0.00 0.00 0.00 70 1006.7
20260506022513 74 8 1.7 7.0 0.00 0.00 0.00 70 1006.7
20260506022021 74 354 1.7 7.0 0.00 0.00 0.00 69 1006.5
20260506021552 75 327 0.9 3.5 0.00 0.00 0.00 69 1006.4
20260506021018 75 0 0.0 2.6 0.00 0.00 0.00 68 1006.2
20260506020513 75 340 0.0 3.5 0.00 0.00 0.00 68 1006.1
20260506020032 75 0 0.0 4.3 0.00 0.00 0.00 67 1005.9
20260506015513 75 335 1.7 5.2 0.00 0.00 0.00 66 1006.2
20260506015015 76 360 1.7 5.2 0.00 0.00 0.00 66 1006.1
20260506014532 76 0 0.9 5.2 0.00 0.00 0.00 66 1006.1
20260506014013 76 341 1.7 7.0 0.00 0.00 0.00 66 1006.2
20260506013511 76 0 1.7 7.0 0.00 0.00 0.00 67 1006.0
20260506013035 76 351 0.9 5.2 0.00 0.00 0.00 66 1005.8
20260506012513 77 341 1.7 7.8 0.00 0.00 0.00 65 1005.7
20260506012012 77 329 1.7 9.6 0.00 0.00 0.00 65 1005.9
20260506011531 77 1 2.6 9.6 0.00 0.00 0.00 64 1006.2
20260506011013 78 343 1.7 7.0 0.00 0.00 0.00 64 1005.8
20260506010511 78 25 0.0 3.5 0.00 0.00 0.00 63 1005.6
20260506010032 78 25 0.9 8.7 0.00 0.00 0.00 63 1005.5
20260506005510 79 330 1.7 8.7 0.00 0.00 0.00 63 1005.6
20260506005014 79 350 2.6 7.0 0.00 0.00 0.00 62 1005.1
20260506004534 80 43 1.7 7.8 0.00 0.00 0.00 62 1005.4
20260506004016 80 345 2.6 7.8 0.00 0.00 0.00 61 1005.4
20260506003518 81 329 1.7 7.0 0.00 0.00 0.00 60 1005.3
20260506003032 81 25 0.9 4.3 0.00 0.00 0.00 60 1005.1
20260506002512 82 29 1.7 7.0 0.00 0.00 0.00 60 1005.1
20260506002020 82 29 2.6 7.0 0.00 0.00 0.00 59 1005.2
20260506001532 83 4 0.9 6.1 0.00 0.00 0.00 59 1005.3
20260506001013 83 343 1.7 7.8 0.00 0.00 0.00 58 1005.1
20260506000514 84 355 1.7 7.8 0.00 0.00 0.00 57 1005.2
20260506000032 84 0 0.9 5.2 0.00 0.00 0.00 57 1004.9
20260505235513 85 1 1.7 10.4 0.00 0.00 0.00 57 1004.5
20260505235012 85 10 2.6 10.4 0.00 0.00 0.00 56 1004.4
20260505234532 86 330 2.6 8.7 0.00 0.00 0.00 54 1004.5
20260505234016 87 335 1.7 7.0 0.00 0.00 0.00 51 1004.4
20260505233514 87 357 1.7 7.0 0.00 0.00 0.00 50 1004.4
20260505233035 87 333 2.6 5.2 0.00 0.00 0.00 50 1004.4
20260505232512 87 349 1.7 8.7 0.00 0.00 0.00 50 1004.3
20260505232015 87 358 2.6 8.7 0.00 0.00 0.00 50 1004.3
20260505231546 87 360 2.6 8.7 0.00 0.00 0.00 50 1004.0
20260505231018 88 308 1.7 7.8 0.00 0.00 0.00 50 1003.9
20260505230512 88 299 0.9 5.2 0.00 0.00 0.00 53 1003.7
20260505230030 88 0 0.0 5.2 0.00 0.00 0.00 57 1003.7
20260505225514 88 212 1.7 4.3 0.00 0.00 0.00 56 1003.5
20260505225011 88 0 0.9 5.2 0.00 0.00 0.00 57 1003.4
20260505224532 88 0 0.9 5.2 0.00 0.00 0.00 57 1003.5
20260505224012 88 207 0.9 5.2 0.00 0.00 0.00 56 1003.7
20260505223514 88 231 0.0 6.1 0.00 0.00 0.00 56 1003.5
20260505223031 88 212 2.6 7.0 0.00 0.00 0.00 56 1003.4
20260505222517 89 166 0.9 7.0 0.00 0.00 0.00 56 1003.4
20260505222018 89 179 2.6 7.0 0.00 0.00 0.00 56 1003.2
20260505221534 89 183 0.9 7.0 0.00 0.00 0.00 56 1003.4
20260505221014 89 0 0.0 2.6 0.00 0.00 0.00 56 1003.5
20260505220515 89 0 0.0 3.5 0.00 0.00 0.00 55 1003.5
20260505220033 90 204 0.9 3.5 0.00 0.00 0.00 55 1003.6
20260505215515 91 221 0.0 5.2 0.00 0.00 0.00 54 1003.5
20260505215013 91 0 0.0 5.2 0.00 0.00 0.00 52 1003.5
20260505214548 92 222 0.9 4.3 0.00 0.00 0.00 52 1003.5
20260505214018 91 0 0.0 4.3 0.00 0.00 0.00 53 1003.5
20260505213514 91 208 1.7 4.3 0.00 0.00 0.00 53 1003.6
20260505213038 91 0 0.9 4.3 0.00 0.00 0.00 53 1003.7
20260505212514 91 321 0.0 4.3 0.00 0.00 0.00 53 1003.7
20260505212015 91 0 0.9 7.0 0.00 0.00 0.00 54 1003.7
20260505211530 91 215 1.7 7.8 0.00 0.00 0.00 56 1003.9
20260505211013 90 212 1.7 10.4 0.00 0.00 0.00 56 1003.9
20260505210512 89 193 3.5 10.4 0.00 0.00 0.00 57 1004.0
20260505210031 89 231 2.6 7.8 0.00 0.00 0.00 58 1003.9
20260505205516 89 206 1.7 7.8 0.00 0.00 0.00 58 1003.9
20260505205013 89 181 0.9 8.7 0.00 0.00 0.00 58 1004.1
20260505204531 89 218 3.5 11.3 0.00 0.00 0.00 59 1004.0
20260505204013 89 216 4.3 13.9 0.00 0.00 0.00 58 1004.2
20260505203513 89 191 2.6 13.9 0.00 0.00 0.00 59 1004.4
20260505203050 88 235 0.9 7.8 0.00 0.00 0.00 60 1004.5
20260505202513 88 230 2.6 6.1 0.00 0.00 0.00 60 1004.4
20260505202016 88 235 0.9 7.8 0.00 0.00 0.00 60 1004.6
20260505201540 88 241 0.9 7.8 0.00 0.00 0.00 59 1004.5
20260505201016 88 219 1.7 9.6 0.00 0.00 0.00 60 1004.5
20260505200515 87 238 3.5 9.6 0.00 0.00 0.00 61 1004.5
20260505200032 88 313 3.5 7.8 0.00 0.00 0.00 60 1004.6
20260505195515 87 0 0.9 11.3 0.00 0.00 0.00 61 1004.6
20260505195011 87 194 3.5 11.3 0.00 0.00 0.00 61 1004.5
20260505194530 87 0 1.7 10.4 0.00 0.00 0.00 62 1004.6
20260505194017 87 215 2.6 15.6 0.00 0.00 0.00 62 1004.6
20260505193512 87 220 1.7 15.6 0.00 0.00 0.00 61 1004.6
20260505193033 86 198 2.6 11.3 0.00 0.00 0.00 62 1004.5
20260505192513 86 211 4.3 11.3 0.00 0.00 0.00 63 1004.5
20260505192015 86 223 0.9 7.8 0.00 0.00 0.00 66 1004.5
20260505191533 85 0 1.7 7.8 0.00 0.00 0.00 65 1004.6
20260505191014 84 258 2.6 10.4 0.00 0.00 0.00 66 1004.5
20260505190515 84 210 2.6 10.4 0.00 0.00 0.00 67 1004.6
20260505190034 84 232 2.6 10.4 0.00 0.00 0.00 66 1004.7
20260505185518 84 226 3.5 10.4 0.00 0.00 0.00 67 1004.7
20260505185015 84 252 2.6 12.2 0.00 0.00 0.00 68 1004.7
20260505184536 84 207 3.5 12.2 0.00 0.00 0.00 68 1004.7
20260505184015 83 220 3.5 10.4 0.00 0.00 0.00 68 1004.7
20260505183515 83 212 1.7 8.7 0.00 0.00 0.00 68 1004.7
20260505183033 83 231 3.5 11.3 0.00 0.00 0.00 68 1004.8
20260505182513 83 219 1.7 11.3 0.00 0.00 0.00 68 1004.6
20260505182015 83 0 1.7 8.7 0.00 0.00 0.00 69 1004.6
20260505181540 83 219 0.9 10.4 0.00 0.00 0.00 69 1004.7
20260505181012 82 193 1.7 12.2 0.00 0.00 0.00 69 1004.6
20260505180514 82 248 3.5 12.2 0.00 0.00 0.00 70 1004.7
20260505180033 82 249 2.6 9.6 0.00 0.00 0.00 70 1004.6
20260505175514 82 208 2.6 7.8 0.00 0.00 0.00 69 1004.6
20260505175017 82 162 2.6 10.4 0.00 0.00 0.00 70 1004.5
20260505174540 82 195 2.6 12.2 0.00 0.00 0.00 70 1004.6
20260505174013 82 232 3.5 12.2 0.00 0.00 0.00 70 1004.9
20260505173513 82 193 3.5 7.8 0.00 0.00 0.00 69 1004.9
20260505173030 82 200 2.6 7.8 0.00 0.00 0.00 70 1005.0
20260505172515 82 271 1.7 12.2 0.00 0.00 0.00 70 1004.9
20260505172015 81 216 1.7 12.2 0.00 0.00 0.00 71 1004.9
20260505171533 81 218 3.5 12.2 0.00 0.00 0.00 71 1005.0
20260505171014 81 245 4.3 12.2 0.00 0.00 0.00 71 1004.9
20260505170513 81 245 4.3 11.3 0.00 0.00 0.00 71 1004.8
20260505170035 80 183 2.6 11.3 0.00 0.00 0.00 73 1005.0
20260505165513 80 216 3.5 16.5 0.00 0.00 0.00 72 1005.0
20260505165013 80 176 6.1 16.5 0.00 0.00 0.00 72 1004.9
20260505164533 80 236 1.7 13.0 0.00 0.00 0.00 73 1004.7
20260505164012 80 214 6.1 13.0 0.00 0.00 0.00 72 1004.8
20260505163510 80 168 4.3 13.0 0.00 0.00 0.00 72 1004.8
20260505163034 80 218 4.3 13.0 0.00 0.00 0.00 72 1004.6
20260505162514 80 0 2.6 8.7 0.00 0.00 0.00 73 1004.8
20260505162014 79 226 2.6 13.9 0.00 0.00 0.00 73 1004.9
20260505161530 79 230 5.2 13.9 0.00 0.00 0.00 73 1004.8
20260505161014 79 245 4.3 13.0 0.00 0.00 0.00 74 1004.8
20260505160513 78 182 5.2 13.0 0.00 0.00 0.00 74 1004.8
20260505153035 78 267 2.6 11.3 0.00 0.00 0.00 76 1004.6
20260505152513 77 222 5.2 11.3 0.00 0.00 0.00 77 1004.8
20260505152017 77 245 6.1 11.3 0.00 0.00 0.00 77 1004.7
20260505151545 77 209 5.2 11.3 0.00 0.00 0.00 78 1004.7
20260505151013 76 282 3.5 11.3 0.00 0.00 0.00 79 1004.7
20260505150515 76 277 2.6 10.4 0.00 0.00 0.00 79 1004.9
20260505140513 73 161 1.7 13.0 0.00 0.00 0.00 83 1004.5
20260505125014 72 195 2.6 9.6 0.00 0.00 0.00 85 1004.2
20260505124532 72 217 2.6 9.6 0.00 0.00 0.00 85 1004.2
20260505124018 72 0 0.9 10.4 0.00 0.00 0.00 85 1004.3
20260505123513 72 220 3.5 10.4 0.00 0.00 0.00 84 1004.1
20260505123033 72 0 1.7 9.6 0.00 0.00 0.00 85 1004.0
20260505122514 72 0 1.7 10.4 0.00 0.00 0.00 85 1003.8
20260505122013 72 218 1.7 10.4 0.00 0.00 0.00 85 1003.9
20260505121531 72 199 1.7 7.8 0.00 0.00 0.00 85 1003.8
20260505121013 72 200 0.9 8.7 0.00 0.00 0.00 85 1003.8
20260505120517 72 191 1.7 9.6 0.00 0.00 0.00 85 1003.8
20260505120038 71 140 2.6 9.6 0.00 0.00 0.00 85 1003.8
20260505115515 71 0 1.7 12.2 0.00 0.00 0.00 85 1003.8
20260505115013 71 166 1.7 12.2 0.00 0.00 0.00 85 1003.7
20260505114530 71 205 1.7 13.9 0.00 0.00 0.00 85 1003.7
20260505114016 71 0 1.7 13.9 0.00 0.00 0.00 85 1003.7
20260505113514 71 219 1.7 7.8 0.00 0.00 0.00 85 1003.7
20260505113030 71 0 2.6 7.0 0.00 0.00 0.00 85 1003.5
20260505112516 71 0 1.7 10.4 0.00 0.00 0.00 85 1003.5
20260505112013 71 205 2.6 10.4 0.00 0.00 0.00 85 1003.6
20260505111532 71 193 2.6 10.4 0.00 0.00 0.00 85 1003.6
20260505111013 71 204 2.6 10.4 0.00 0.00 0.00 85 1003.7
20260505110514 71 227 3.5 10.4 0.00 0.00 0.00 85 1003.6
20260505102015 71 204 3.5 10.4 0.00 0.00 0.00 84 1003.6
20260505101532 72 214 1.7 10.4 0.00 0.00 0.00 84 1003.8
20260505101014 72 0 1.7 12.2 0.00 0.00 0.00 84 1003.8
20260505100516 72 195 4.3 13.9 0.00 0.00 0.00 84 1003.8
20260505100034 72 196 4.3 13.9 0.00 0.00 0.00 84 1003.7
20260505095514 72 216 0.9 13.0 0.00 0.00 0.00 84 1003.8
20260505095012 72 168 4.3 13.0 0.00 0.00 0.00 84 1003.8
20260505094530 72 222 2.6 12.2 0.00 0.00 0.00 84 1004.0
20260505094013 72 202 3.5 12.2 0.00 0.00 0.00 84 1003.9
20260505093513 71 204 1.7 10.4 0.00 0.00 0.00 84 1003.9
20260505093040 71 258 2.6 8.7 0.00 0.00 0.00 84 1003.9
20260505092512 71 211 2.6 9.6 0.00 0.00 0.00 84 1004.0